#timestamp,LO_Frequency,Hit,StdDev 
1608616815.4,286047004.1,N
1608616835.2,286047003.7,N
1608616855.1,286047004.2,N
1608616856.0,286047004.2,N
1608616875.8,286047004.4,N
1608616895.6,286047003.6,N
1608616915.5,286047003.6,N
1608616935.3,286047003.8,N
1608616955.1,286047003.5,N
1608616975.9,286047003.4,N
1608616995.7,286047005.9,N
1608617015.5,286047006.0,N
1608617035.3,286047003.8,N
1608617055.2,286047003.8,N
1608617075.0,286047004.1,N
1608617075.9,286047004.1,N
1608617095.7,286047003.7,N
1608617115.6,286047005.2,N
1608617135.4,286047005.1,N
1608617155.2,286047005.1,N
1608617175.1,286047003.0,N
1608617176.0,286047003.0,N
1608617195.8,286047005.7,N
1608617215.6,286047004.9,N
1608617235.5,286047006.6,Y
1608617255.3,286047004.4,P
1608617275.1,286047003.6,P
1608617295.9,286047005.7,P
1608617315.7,286047005.7,Y
1608617335.5,286047000.5,P
1608617355.4,286047000.9,N
1608617375.2,286047000.4,N
1608617395.0,286047002.1,N
1608617395.9,286047002.1,N
1608617415.8,286047002.6,N
1608617435.6,286047001.5,N
1608617455.4,286047001.9,N
1608617475.3,286046999.7,N
1608617495.1,286047003.9,Y
1608617515.8,286047001.6,P
1608617535.7,286047001.7,P
1608617555.5,286047004.4,P
1608617575.3,286047003.8,Y
1608617595.2,286047002.8,P
1608617615.9,286047001.7,P
1608617635.7,286047001.3,N
1608617655.6,286047003.8,Y
1608617675.4,286047001.6,P
1608617695.2,286047002.2,P
1608617715.1,286047003.9,P
1608617716.0,286047003.9,Y
1608617735.8,286047001.2,P
1608617755.6,286047000.3,N
1608617775.5,286047000.1,N
1608617795.3,286047001.9,N
1608617815.1,286047001.3,N
1608617835.9,286047003.2,Y
1608617855.7,286047004.2,P
1608617875.5,286047004.4,N
1608617895.4,286047004.2,N
1608617915.2,286047004.1,Y
1608617935.0,286047000.8,P
1608617935.9,286047000.8,N
1608617955.8,286046998.2,N
1608617975.6,286047000.6,N
1608617995.4,286047000.7,N
1608618015.3,286047000.7,N
1608618035.1,286047001.0,N
1608618055.8,286047000.7,N
1608618075.7,286046999.9,N
1608618095.5,286047000.8,N
1608618115.3,286047000.4,N
1608618135.2,286047000.5,N
1608618155.9,286047000.4,N
1608618175.7,286047000.2,N
1608618195.6,286047000.9,N
1608618215.4,286047000.8,N
1608618235.2,286047000.3,N
1608618255.1,286047000.0,N
1608618256.0,286047000.0,N
1608618275.8,286047002.5,N
1608618295.6,286047002.4,N
1608618315.5,286047002.5,N
1608618335.3,286047001.7,N
1608618355.1,286047001.9,N
1608618375.9,286047001.4,N
1608618395.7,286047003.8,Y
1608618415.5,286047004.4,P
1608618435.4,286047001.6,N
1608618455.2,286047004.2,N
1608618475.0,286047003.3,N
1608618475.9,286047003.3,N
1608618495.8,286047003.1,N
1608618515.6,286047005.5,Y
1608618535.4,286047002.7,P
1608618555.3,286047002.6,P
1608618575.1,286047002.6,P
1608618576.0,286047002.6,Y
1608618595.8,286046998.3,P
1608618615.7,286046998.3,N
1608618635.5,286046997.1,N
1608618655.3,286046996.9,N
1608618675.2,286046996.5,N
1608618695.9,286046998.7,N
1608618715.7,286046999.1,N
1608618735.6,286046998.9,N
1608618755.4,286046998.4,N
1608618775.2,286047000.8,N
1608618795.1,286047000.7,N
1608618796.0,286047000.7,N
1608618815.8,286047000.7,N
1608618835.6,286046998.2,N
1608618855.5,286047000.5,N
1608618875.3,286047000.6,N
1608618895.1,286047000.6,N
1608618915.9,286046998.6,N
1608618935.7,286046998.6,N
1608618955.5,286046998.6,N
1608618975.4,286047001.1,N
1608618995.2,286047001.1,N
1608619015.0,286047000.7,N
1608619015.9,286047000.7,N
1608619035.8,286047000.7,N
1608619055.6,286046999.0,N
1608619075.4,286046998.9,N
1608619095.3,286047000.8,N
1608619115.1,286047000.9,N
1608619116.0,286047000.9,N
1608619135.8,286047000.7,N
1608619155.7,286047000.8,N
1608619175.5,286047001.2,N
1608619195.3,286047000.8,N
1608619215.1,286047000.5,N
1608619235.9,286047000.5,N
1608619255.7,286047001.1,N
1608619275.5,286047000.8,N
1608619295.4,286047000.5,N
1608619315.2,286046998.2,N
1608619335.0,286046998.6,N
1608619335.9,286046998.6,N
1608619355.8,286047000.8,N
1608619375.6,286047000.0,N
1608619395.4,286047000.9,N
1608619415.3,286047001.2,N
1608619435.1,286046999.5,N
1608619455.8,286046998.2,N
1608619475.7,286046999.0,N
1608619495.5,286046996.5,Y
1608619515.3,286046997.1,P
1608619535.2,286046999.6,N
1608619555.0,286046997.1,N
1608619555.9,286046997.1,N
1608619575.7,286046996.8,N
1608619595.6,286046997.2,N
1608619615.4,286046999.4,N
1608619635.2,286046997.1,N
1608619655.1,286046997.6,N
1608619656.0,286047011.9,Y
1608619675.8,286046998.7,P
1608619695.7,286047001.1,N
1608619715.5,286046998.3,N
1608619735.3,286046999.3,N
1608619755.2,286046999.4,N
1608619775.9,286046996.9,Y
1608619795.7,286046999.0,P
1608619815.6,286047001.2,P
1608619835.4,286046996.7,P
1608619855.2,286046997.6,N
1608619875.1,286046996.5,N
1608619876.0,286046996.5,N
1608619895.8,286046997.7,N
1608619915.6,286046996.8,N
1608619935.5,286046998.0,N
1608619955.3,286046995.5,Y
1608619975.1,286046996.8,P
1608619995.9,286046997.3,P
1608620015.7,286046997.4,P
1608620035.5,286046997.0,Y
1608620055.4,286047000.6,P
1608620075.2,286046998.8,N
1608620095.0,286046999.6,N
1608620095.9,286046999.6,N
1608620115.8,286046998.7,N
1608620135.6,286046998.8,N
1608620155.4,286046999.0,N
1608620175.3,286046998.2,N
1608620195.1,286046996.6,Y
1608620196.0,286046996.6,P
1608620215.8,286046999.5,N
1608620235.7,286046999.6,N
1608620255.5,286046996.5,N
1608620275.3,286046999.6,N
1608620295.2,286046997.0,N
1608620315.9,286046996.5,N
1608620335.7,286046996.7,N
1608620355.6,286046997.8,N
1608620375.4,286046997.9,N
1608620395.2,286046997.9,N
